Powrót do katalogu

COSMOS 1596

AktywnyMilitariaHEO
NORAD 15267·PAYLOAD·🇷🇺 Russia

Wystrzelony Sep 7, 1984 z Plesetsk Cosmodrome

Loading…

Następne Przeloty (najbliższe 24 godziny)

TLE

ŚwieżeSource: Space-Track

Epoka: Sep 14, 2026, 01:23 UTC

1 15267U 84096A   26257.05825189 -.00000957  00000-0  00000-0 0  9990
2 15267  65.9014 122.9728 6715304  23.0754 356.8027  2.00826226307791

Śledź COSMOS 1596 w czasie rzeczywistym z AllMySat

Download on the App Store